Location: Passau
(48.5830°N, 13.4830°E)
Time: 21:30:55
(UTC+02:00)

S-56A Canister/Altair - Pass Details

Date: 25 May 2024
Orbit: 637 x 2489 km, 38.9° (Epoch: 16 June)

Event Time Altitude Azimuth Distance (km) Brightness Sun altitude
Rises 09:35:55 0° 263° (W) 5,560 11.5 40.6°
Reaches altitude 10° 09:40:10 10° 258° (WSW) 4,291 11.0 41.3°
Maximum altitude 09:50:14 44° 192° (SSW) 1,880 10.0 42.9°
Drops below altitude 10° 09:57:04 10° 123° (ESE) 2,931 11.5 44.0°
Sets 09:59:27 0° 116° (ESE) 3,683 11.8 44.4°
